Retour au catalogue

STARLINK-32094

ActifCommunicationsVLEO
NORAD 59696·PAYLOAD·🇺🇸 United States

Lancé May 8, 2024 depuis Cape Canaveral Space Force Station

Loading…

Prochains Passages (prochaines 24 heures)

TLE

FraisSource: CelesTrak SupGP

Époque: Sep 15, 2026, 03:07 UTC

1 59696C 24086Q   26258.13034722 -.00025237  00000+0 -91380-3 0  2582
2 59696  43.0030  70.3381 0001824 272.4625 354.5762 15.27600552    18

Suivez STARLINK-32094 en temps réel avec AllMySat

Download on the App Store